Regional Weather Roundup
Issued by NWS Burlington, VT

Home | Current Version | Previous Version | Text Only | Print | Product List | Glossary On
Versions: 1 2 3 4 5 6 7 8 9 10 11 12 13 14 15 16 17 18 19 20 21 22 23 24 25 26 27 28 29 30 31 32 33 34 35 36 37 38 39 40 41 42 43 44 45 46 47 48 49 50
000
ASUS41 KBTV 300930
RWRBTV
VERMONT REGIONAL WEATHER ROUNDUP
NATIONAL WEATHER SERVICE BURLINGTON VT
500 AM EDT SUN APR 30 2017

NOTE: "FAIR" INDICATES FEW OR NO CLOUDS BELOW 12,000 FEET WITH NO
SIGNIFICANT WEATHER AND/OR OBSTRUCTIONS TO VISIBILITY.

* THESE REPORTS ARE NOT UNDER NWS QUALITY CONTROL AND/OR DO NOT
  REPORT WEATHER SUCH AS PRECIPITATION AND FOG.

VTZ001>019-301000-
_____VERMONT_____


CITY           SKY/WX    TMP DP  RH WIND       PRES   REMARKS
BURLINGTON     CLOUDY    40  27  59 N6        30.31R
MONTPELIER     CLOUDY    33  24  69 CALM      30.30R
MORRISVILLE    CLOUDY    30  24  78 CALM      30.31R
ST. JOHNSBURY*   N/A     36  25  64 MISG      30.26R
LYNDONVILLE*   FAIR      33  23  69 NW5       30.28R WCI  28
MIDDLEBURY*    FAIR      34  27  75 CALM      30.28F
RUTLAND*       CLOUDY    37  25  61 N3        30.25F
SPRINGFIELD    CLOUDY    41  21  44 N9        30.25S
HIGHGATE*      FAIR      36  26  67 N6        30.32R WCI  31
NEWPORT*       FAIR      34  23  65 N10       30.31R WCI  26
BENNINGTON     PTCLDY    42  28  57 NW5       30.21S
SUTTON*          N/A     32 N/A N/A MISG        N/A
ISLAND POND*     N/A     32 N/A N/A N6          N/A  WCI  26
GALLUP MILLS*    N/A     30 N/A N/A MISG        N/A
UNION VILLAGE*   N/A     36 N/A N/A MISG        N/A
MT. MANSFIELD*   N/A     23 N/A N/A N7G18       N/A  WCI  15

_____LAKE CHAMPLAIN_____


CITY           SKY/WX    TMP DP  RH WIND       PRES   REMARKS
BURTON ISLAND*   N/A     39  28  65 NE2         N/A
COLCHESTER RF*   N/A     41  32  70 N14         N/A
DIAMOND ISL*     N/A     41  27  56 NW10        N/A

$$

NYZ007-026>031-035-052-083-087-301000-
_____NORTHERN NEW YORK_____


CITY           SKY/WX    TMP DP  RH WIND       PRES   REMARKS
PLATTSBURGH    CLOUDY    34  25  69 VRB3      30.31R
SARANAC LAKE   CLOUDY    28  25  88 N3        30.23F
MASSENA        CLOUDY    37  25  61 N6        30.35R
OGDENSBURG*    FAIR      38  29  70 NE6       30.32S
POTSDAM*       CLEAR     32  32 100 E3        30.31R
STARK FALLS*     N/A     32 N/A N/A N2          N/A
WATERTOWN      MOCLDY    38  28  67 NE12      30.27F WCI  30
FT DRUM        MOCLDY    36  26  66 NE8       30.26F WCI  30
ALBANY         CLEAR     44  27  51 N9        30.24S
GLENS FALLS    CLEAR     42  24  49 NE14G21   30.26S

$$
NHZ002-005-011-301000-
_____NEW HAMPSHIRE_____


CITY           SKY/WX    TMP DP  RH WIND       PRES   REMARKS
LEBANON        CLOUDY    41  26  55 N6        30.25S
KEENE          CLOUDY    45  28  51 N15       30.22R
MT WASHINGTON  PTCLDY    27  21  80 NW48        N/A  WCI   7
PLYMOUTH       FAIR      39  25  56 N5        30.23S
WHITEFIELD     CLOUDY    30  23  75 CALM      30.26R

$$

_____REGIONAL QUEBEC LOCATIONS_____


CITY           SKY/WX    TMP DP  RH WIND       PRES   REMARKS
MONTREAL       PTCLDY    36  23  60 N12       30.33R WCI  27
QUEBEC CITY    MOCLDY    36  23  60 N7        30.30R WCI  30
SHERBROOKE     CLOUDY    34  23  64 NW5       30.29R WCI  30

_____REGIONAL ONTARIO LOCATIONS_____


CITY           SKY/WX    TMP DP  RH WIND       PRES   REMARKS
OTTAWA         MOCLDY    37  23  56 N9        30.33S WCI  31

______KEY______
VSB  - VISIBILITY IN MILES
WCI  - WIND CHILL INDEX
HX   - HEAT INDEX
$$
NNNN



USA.gov is the U.S. government's official web portal to all federal, state and local government web resources and services.